Regional Weather Roundup
Issued by NWS

Home | Current Version | Previous Version | Text Only | Print | Product List | Glossary Off
Versions: 1 2 3 4 5 6 7 8 9 10 11 12 13 14 15 16 17 18 19 20 21 22 23 24 25 26 27 28 29 30 31 32 33 34 35 36 37 38 39 40 41 42 43 44 45 46 47 48 49 50

000
ASUS43 KDMX 190507
RWRIA

WEATHER ROUNDUP FOR IOWA
NATIONAL WEATHER SERVICE DES MOINES IA
1200 AM CDT FRI SEP 19 2014

NOTE: "FAIR" INDICATES FEW OR NO CLOUDS BELOW 12,000 FEET WITH NO
SIGNIFICANT WEATHER AND/OR OBSTRUCTIONS TO VISIBILITY.

* - THESE STATIONS ARE NOT NWS STATIONS...THUS NOT UNDER NWS
QUALITY CONTROL.  THEY ALSO DO NOT REPORT WEATHER SUCH
AS PRECIPITATION OR FOG.

IAZ001>003-012>014-020>022-031>034-043>046-190600-
   NORTHWEST IOWA

CITY           SKY/WX    TMP DP  RH WIND       PRES   REMARKS
CARROLL *      CLEAR     55  54  94 SE6       30.01S
CHEROKEE *     PTCLDY    59  55  88 S8        29.98S
DENISON *      CLEAR     61  57  88 SE12      29.98R
LE MARS *        N/A     59  55  88 S10       29.96S
ORANGE CITY *  CLEAR     61  54  77 S10G16    29.95F
SHELDON *      CLEAR     59  54  82 S13       29.94F
SIOUX CITY     CLEAR     60  55  83 SE10      29.95S
SPENCER        PTCLDY    59  53  80 S10       29.98F
STORM LAKE *   CLEAR     57  57 100 S12       29.99S
$$

IAZ055>058-069>071-079>083-090>094-190600-
   SOUTHWEST IOWA

CITY           SKY/WX    TMP DP  RH WIND       PRES   REMARKS
ATLANTIC *     PTCLDY    61  57  88 SE7       30.01S
AUDUBON *      CLEAR     55  52  88 S3        30.02F
CLARINDA *     CLEAR     59  57  94 SE5       30.03F
COUNCIL BLFS * CLEAR     59  59 100 S9        29.98F
CRESTON *      CLEAR     57  57 100 SE9       30.04S
HARLAN  *      CLEAR     59  57  94 SE8       30.03S
LAMONI         CLEAR     59  56  89 SE6       30.05S
SHENANDOAH *     N/A     61  59  94 SE6       30.01F
$$

IAZ047>049-059>061-072>074-084-190600-
   CENTRAL IOWA

CITY           SKY/WX    TMP DP  RH WIND       PRES   REMARKS
AMES           CLEAR     53  51  93 SE5       30.03F
ANKENY *       CLEAR     55  54  94 SE5       30.04F
CHARITON *     CLEAR     57  55  94 SE6       30.05S
DES MOINES     CLEAR     60  55  83 SE8       30.04S
GRINNELL*      CLEAR     55  52  88 SE6       30.06F
KNOXVILLE *    CLEAR     57  54  88 SE5       30.05R
MARSHALLTOWN   CLEAR     53  51  93 SE7       30.05F
PELLA *        CLEAR     55  52  88 SE6       30.07F
PERRY *          N/A     55  54  94 SE7       30.03S
$$

IAZ004>006-015-016-023>025-035-036-190600-
   NORTH CENTRAL IOWA

CITY           SKY/WX    TMP DP  RH WIND       PRES   REMARKS
ALGONA *       CLEAR     57  52  82 S13       30.01S
CLARION *        N/A     55  52  88 SE8       30.02F
ESTHERVILLE    CLEAR     57  51  80 S10       29.98F
FORT DODGE *   PTCLDY    61  52  72 S7        30.03S
MASON CITY     CLEAR     55  52  89 S8        30.05S
FOREST CITY *  CLEAR     54  54 100 S6        30.02F
IOWA FALLS *     N/A     55  52  88 SE5       30.05F
$$

IAZ007>011-017>019-026>030-037>042-050>054-066-190600-
   NORTHEAST IOWA

CITY           SKY/WX    TMP DP  RH WIND       PRES   REMARKS
CEDAR RAPIDS   CLEAR     53  51  93 SE7       30.09R
CHARLES CITY * CLEAR     57  52  82 SE9       30.06S
CLINTON *      CLEAR     55  52  88 E9        30.15R
DECORAH *      CLEAR     55  54  94 SE9G15    30.07S
DUBUQUE        CLEAR     56  52  86 SE10      30.12S
MONTICELLO *   CLEAR     57  54  88 SE7       30.11R
OELWEIN *      CLEAR     57  52  82 SE10      30.08F
WATERLOO       CLEAR     57  52  83 SE8       30.05F
$$

IAZ064-065-067-068-078-190600-
   EAST CENTRAL IOWA

CITY           SKY/WX    TMP DP  RH WIND       PRES   REMARKS
DAVENPORT      PTCLDY    55  49  80 E9        30.13R
IOWA CITY      CLEAR     56  52  86 SE5       30.11R
MT. PLEASANT * CLEAR     55  50  82 E6        30.10R
MUSCATINE *    CLEAR     54  50  87 CALM      30.11R
QUAD CITIES    CLEAR     55  49  80 E8        30.12R
$$

IAZ062-063-075>077-085>089-095>099-190600-
   SOUTHEAST IOWA

CITY           SKY/WX    TMP DP  RH WIND       PRES   REMARKS
BURLINGTON     CLEAR     59  50  72 E6        30.09S
FAIRFIELD *    CLEAR     55  52  88 SE6       30.09R
FORT MADISON * CLEAR     57  52  82 E6        30.10R
KEOKUK *       CLEAR     59  52  77 SE6       30.08S
OSKALOOSA *      N/A     55  52  88 SE7       30.08S
CENTERVILLE *  CLEAR     54  54 100 E6        30.08S
OTTUMWA        CLEAR     54  51  90 SE6       30.08R
WASHINGTON *   CLEAR     52  52 100 E5        30.10R
$$

ABBREVIATIONS USED IN REMARKS
   TC - TEMPERATURES IN CELSIUS
  WCI - WIND CHILL INDEX
   HX - HEAT INDEX
  VSB - VISIBILITY
$$



USA.gov is the U.S. government's official web portal to all federal, state and local government web resources and services.